N1EDZ Weather Reports


Display with metric or nautical units.
time (UTC)temp
F
wind
direction
speed
MPH
gust
MPH
rain 1hr
in
rain 24hr
in
rain mn
in
humidity
%
barometer
mb
20260506192247 59 103 1.0 2.0 0.01 0.00 0.13 97 1007.0
20260506191750 59 121 2.0 3.0 0.00 0.00 0.13 96 1007.0
20260506191247 60 195 2.0 3.0 0.00 0.00 0.13 96 1007.0
20260506190746 60 139 2.0 2.0 0.00 0.00 0.13 96 1007.0
20260506190254 60 168 0.0 2.0 0.00 0.00 0.12 96 1007.0
20260506185747 60 0 0.0 0.0 0.00 0.00 0.12 96 1007.0
20260506185249 60 216 1.0 3.0 0.05 0.00 0.12 96 1007.0
20260506184747 60 137 2.0 4.0 0.15 0.00 0.12 95 1007.0
20260506184247 60 228 0.0 2.0 0.07 0.00 0.10 95 1007.0
20260506183747 60 174 2.0 4.0 0.03 0.00 0.09 94 1007.0
20260506182800 60 210 2.0 3.0 0.01 0.00 0.09 96 1007.0
20260506182246 60 233 0.0 2.0 0.02 0.00 0.11 97 1007.0
20260506181746 60 219 2.0 3.0 0.05 0.00 0.11 95 1007.0
20260506181247 60 29 0.0 2.0 0.07 0.00 0.10 95 1007.0
20260506180747 60 231 2.0 3.0 0.07 0.00 0.09 96 1008.0
20260506180247 60 153 3.0 5.0 0.05 0.00 0.08 95 1008.0
20260506175746 60 239 1.0 4.0 0.04 0.00 0.08 95 1008.0
20260506175247 60 187 1.0 2.0 0.13 0.00 0.08 94 1008.0
20260506174746 61 195 2.0 4.0 0.11 0.00 0.06 93 1008.0
20260506174247 61 161 3.0 4.0 0.10 0.00 0.05 91 1008.0
20260506173747 61 175 1.0 3.0 0.04 0.00 0.04 91 1008.0
20260506173247 62 164 0.0 2.0 0.07 0.00 0.04 91 1008.0
20260506172746 62 153 2.0 4.0 0.06 0.00 0.03 89 1009.0
20260506172248 62 168 1.0 2.0 0.04 0.00 0.03 89 1009.0
20260506171747 63 159 2.0 5.0 0.05 0.00 0.02 86 1009.0
20260506171250 64 220 0.0 1.0 0.03 0.00 0.01 84 1009.0
20260506170747 65 242 3.0 6.0 0.03 0.00 0.01 81 1009.0
20260506170247 66 232 1.0 4.0 0.08 0.00 0.00 77 1008.0
20260506165747 67 204 3.0 6.0 0.03 0.00 0.00 74 1008.0
20260506165247 67 164 3.0 7.0 0.00 0.00 0.00 72 1008.0
20260506164748 67 197 0.0 2.0 0.00 0.00 0.00 72 1008.0
20260506164247 67 284 2.0 4.0 0.00 0.00 0.00 72 1008.0
20260506163747 66 183 4.0 7.0 0.00 0.00 0.00 72 1008.0
20260506163247 67 184 2.0 4.0 0.00 0.00 0.00 72 1008.0
20260506162746 67 205 2.0 3.0 0.00 0.00 0.00 72 1008.0
20260506162246 67 176 3.0 5.0 0.00 0.00 0.00 72 1009.0
20260506161747 66 162 4.0 8.0 0.00 0.00 0.00 72 1008.0
20260506161247 66 256 3.0 9.0 0.00 0.00 0.00 72 1009.0
20260506160746 66 166 2.0 8.0 0.00 0.00 0.00 73 1009.0
20260506160253 66 191 3.0 6.0 0.00 0.00 0.00 72 1009.0
20260506155748 67 253 3.0 8.0 0.00 0.00 0.00 72 1009.0
20260506155247 66 246 0.0 0.0 0.00 0.00 0.00 73 1009.0
20260506154747 66 216 2.0 4.0 0.00 0.00 0.00 73 1009.0
20260506154246 66 159 3.0 5.0 0.00 0.00 0.00 73 1009.0
20260506153746 66 236 2.0 4.0 0.00 0.00 0.00 72 1009.0
20260506153247 66 299 2.0 3.0 0.00 0.00 0.00 73 1009.0
20260506152747 66 162 3.0 5.0 0.00 0.00 0.00 73 1009.0
20260506152247 66 224 3.0 6.0 0.00 0.00 0.00 73 1009.0
20260506151746 66 166 4.0 9.0 0.00 0.00 0.00 74 1009.0
20260506151247 66 236 1.0 4.0 0.00 0.00 0.00 74 1009.0
20260506150747 66 148 4.0 7.0 0.00 0.00 0.00 74 1009.0
20260506150247 65 201 1.0 3.0 0.00 0.00 0.00 74 1009.0
20260506145747 65 158 0.0 2.0 0.00 0.00 0.00 74 1009.0
20260506145246 65 152 2.0 6.0 0.00 0.00 0.00 75 1009.0
20260506144746 65 306 0.0 2.0 0.00 0.00 0.00 74 1009.0
20260506144247 65 169 3.0 6.0 0.00 0.00 0.00 75 1009.0
20260506143746 65 57 1.0 4.0 0.00 0.00 0.00 75 1009.0
20260506143247 66 182 2.0 4.0 0.00 0.00 0.00 75 1009.0
20260506142747 66 234 1.0 4.0 0.00 0.00 0.00 74 1009.0
20260506142247 66 287 1.0 2.0 0.00 0.00 0.00 75 1009.0
20260506141746 66 118 1.0 3.0 0.00 0.00 0.00 75 1010.0
20260506141247 66 195 1.0 3.0 0.00 0.00 0.00 74 1009.0
20260506140747 65 172 2.0 4.0 0.00 0.00 0.00 75 1009.0
20260506135914 65 299 2.0 6.0 0.00 0.00 0.00 76 1009.0
20260506135247 65 122 2.0 3.0 0.00 0.00 0.00 76 1009.0
20260506134747 65 147 3.0 8.0 0.00 0.00 0.00 77 1009.0
20260506134246 64 159 4.0 7.0 0.00 0.00 0.00 77 1009.0
20260506133746 64 165 3.0 7.0 0.00 0.00 0.00 77 1009.0
20260506133247 64 165 7.0 9.0 0.00 0.00 0.00 77 1009.0
20260506132747 64 316 2.0 5.0 0.00 0.00 0.00 77 1009.0
20260506132247 64 203 0.0 2.0 0.00 0.00 0.00 78 1009.0
20260506131747 64 270 2.0 3.0 0.00 0.00 0.00 78 1009.0
20260506131247 64 160 2.0 4.0 0.00 0.00 0.00 78 1009.0
20260506130746 64 173 2.0 4.0 0.00 0.00 0.00 79 1009.0
20260506130249 64 159 3.0 7.0 0.00 0.00 0.00 79 1009.0
20260506125750 64 182 0.0 3.0 0.00 0.00 0.00 79 1010.0
20260506125246 64 356 1.0 2.0 0.00 0.00 0.00 79 1010.0
20260506124746 64 177 3.0 6.0 0.00 0.00 0.00 79 1010.0
20260506124246 64 185 2.0 6.0 0.00 0.00 0.00 79 1010.0
20260506123747 64 47 1.0 2.0 0.00 0.00 0.00 79 1010.0
20260506123247 64 63 1.0 3.0 0.00 0.00 0.00 79 1010.0
20260506122747 64 229 0.0 2.0 0.00 0.00 0.00 79 1010.0
20260506122247 64 294 1.0 2.0 0.00 0.00 0.00 79 1010.0
20260506121746 64 205 1.0 3.0 0.00 0.00 0.00 79 1010.0
20260506121246 64 163 1.0 4.0 0.00 0.00 0.00 79 1010.0
20260506120746 64 187 1.0 4.0 0.00 0.00 0.00 79 1009.0
20260506115803 64 143 2.0 6.0 0.00 0.00 0.00 79 1010.0
20260506115246 64 159 6.0 8.0 0.00 0.00 0.00 79 1010.0
20260506114746 64 245 1.0 2.0 0.00 0.00 0.00 79 1010.0
20260506114247 63 224 2.0 3.0 0.00 0.00 0.00 79 1010.0
20260506113751 63 189 2.0 3.0 0.00 0.00 0.00 80 1010.0
20260506113249 62 150 1.0 3.0 0.00 0.00 0.00 81 1009.0
20260506112748 62 185 1.0 3.0 0.00 0.00 0.00 82 1010.0
20260506112250 61 169 3.0 4.0 0.00 0.00 0.00 83 1010.0
20260506111746 60 187 2.0 4.0 0.00 0.00 0.00 84 1010.0
20260506111250 60 139 1.0 3.0 0.00 0.00 0.00 85 1010.0
20260506110748 59 166 1.0 3.0 0.00 0.00 0.00 87 1010.0
20260506110249 59 0 0.0 0.0 0.00 0.00 0.00 87 1010.0
20260506105748 59 163 1.0 4.0 0.00 0.00 0.00 86 1010.0
20260506105249 59 0 0.0 0.0 0.00 0.00 0.00 86 1010.0
20260506104750 59 175 1.0 3.0 0.00 0.00 0.00 86 1010.0
20260506104250 59 192 1.0 3.0 0.00 0.00 0.00 86 1010.0
20260506103750 59 135 0.0 2.0 0.00 0.00 0.00 87 1010.0
20260506103248 58 171 2.0 3.0 0.00 0.00 0.00 87 1010.0
20260506102751 58 63 1.0 3.0 0.00 0.00 0.00 87 1010.0
20260506102246 58 0 0.0 0.0 0.00 0.00 0.00 88 1010.0
20260506101749 58 168 0.0 1.0 0.00 0.00 0.00 88 1010.0
20260506101251 58 173 0.0 1.0 0.00 0.00 0.00 88 1010.0
20260506100751 58 124 0.0 2.0 0.00 0.00 0.00 88 1010.0
20260506100256 57 162 1.0 2.0 0.00 0.00 0.00 89 1010.0
20260506095746 57 150 0.0 1.0 0.00 0.00 0.00 88 1010.0
20260506095247 57 150 0.0 1.0 0.00 0.00 0.00 89 1010.0
20260506094746 57 0 0.0 0.0 0.00 0.00 0.00 89 1010.0
20260506094247 57 0 0.0 0.0 0.00 0.00 0.00 88 1010.0
20260506093747 57 144 2.0 4.0 0.00 0.00 0.00 89 1010.0
20260506093247 57 223 0.0 1.0 0.00 0.00 0.00 89 1010.0
20260506092746 57 0 0.0 0.0 0.00 0.00 0.00 88 1010.0
20260506092247 57 0 0.0 0.0 0.00 0.00 0.00 88 1010.0
20260506091746 57 0 0.0 0.0 0.00 0.00 0.00 87 1010.0
20260506091249 58 0 0.0 0.0 0.00 0.00 0.00 87 1010.0
20260506090748 58 0 0.0 0.0 0.00 0.00 0.00 86 1010.0
20260506090247 58 0 0.0 0.0 0.00 0.00 0.00 85 1010.0
20260506085747 58 163 1.0 4.0 0.00 0.00 0.00 85 1010.0
20260506085246 58 170 0.0 0.0 0.00 0.00 0.00 85 1010.0
20260506084747 58 0 0.0 0.0 0.00 0.00 0.00 85 1010.0
20260506084247 58 133 1.0 2.0 0.00 0.00 0.00 85 1010.0
20260506083746 58 0 0.0 0.0 0.00 0.00 0.00 85 1010.0
20260506083246 58 0 0.0 0.0 0.00 0.00 0.00 84 1010.0
20260506082746 58 118 0.0 2.0 0.00 0.00 0.00 84 1010.0
20260506082246 59 170 0.0 2.0 0.00 0.00 0.00 84 1010.0
20260506081746 59 0 0.0 0.0 0.00 0.00 0.00 83 1010.0
20260506081246 59 0 0.0 0.0 0.00 0.00 0.00 83 1010.0
20260506080747 59 0 0.0 0.0 0.00 0.00 0.00 82 1010.0
20260506080246 60 0 0.0 0.0 0.00 0.00 0.00 82 1010.0
20260506073246 61 0 0.0 0.0 0.00 0.00 0.00 79 1010.0
20260506072747 61 178 1.0 2.0 0.00 0.00 0.00 79 1010.0
20260506072248 61 198 0.0 1.0 0.00 0.00 0.00 78 1010.0
20260506071747 61 0 0.0 0.0 0.00 0.00 0.00 78 1010.0
20260506071246 62 154 1.0 4.0 0.00 0.00 0.00 77 1010.0
20260506070747 62 142 1.0 6.0 0.00 0.00 0.00 77 1010.0
20260506070246 62 181 0.0 2.0 0.00 0.00 0.00 76 1010.0
20260506062246 63 180 3.0 5.0 0.00 0.00 0.00 73 1009.0
20260506061746 63 183 4.0 8.0 0.00 0.00 0.00 74 1009.0
20260506061247 63 184 0.0 3.0 0.00 0.00 0.00 74 1010.0
20260506060746 63 172 4.0 7.0 0.00 0.00 0.00 73 1010.0
20260506060246 63 167 3.0 8.0 0.00 0.00 0.00 73 1010.0
20260506051246 65 168 3.0 8.0 0.00 0.00 0.00 68 1010.0
20260506050746 65 228 2.0 4.0 0.00 0.00 0.00 67 1010.0
20260506050246 65 211 1.0 2.0 0.00 0.00 0.00 68 1010.0
20260506044746 64 142 4.0 7.0 0.00 0.00 0.00 67 1010.0
20260506044246 64 247 0.0 1.0 0.00 0.00 0.00 67 1010.0
20260506043747 64 166 2.0 5.0 0.00 0.00 0.00 67 1010.0
20260506043246 64 230 1.0 3.0 0.00 0.00 0.00 66 1010.0
20260506042746 64 164 1.0 3.0 0.00 0.00 0.00 67 1010.0
20260506042246 64 167 1.0 2.0 0.00 0.00 0.00 67 1010.0
20260506041746 64 190 1.0 3.0 0.00 0.00 0.00 67 1010.0
20260506041246 64 147 1.0 3.0 0.00 0.00 0.00 68 1010.0
20260506040747 64 205 3.0 4.0 0.00 0.00 0.00 68 1010.0
20260506040246 63 160 1.0 2.0 0.00 0.00 0.00 68 1010.0
20260506035746 63 144 1.0 3.0 0.00 0.00 0.00 68 1010.0
20260506035246 63 160 2.0 5.0 0.00 0.00 0.00 68 1010.0
20260506034747 63 199 2.0 3.0 0.00 0.00 0.00 68 1010.0
20260506034246 64 238 1.0 2.0 0.00 0.00 0.00 68 1010.0
20260506033748 64 357 1.0 3.0 0.00 0.00 0.00 67 1010.0
20260506033248 64 210 0.0 1.0 0.00 0.00 0.00 67 1010.0
20260506032747 64 161 3.0 5.0 0.00 0.00 0.00 67 1010.0
20260506032247 64 182 1.0 2.0 0.00 0.00 0.00 67 1010.0
20260506031747 64 251 0.0 2.0 0.00 0.00 0.00 67 1010.0
20260506031246 64 334 1.0 3.0 0.00 0.00 0.00 66 1010.0
20260506030746 64 207 1.0 2.0 0.00 0.00 0.00 67 1010.0
20260506030246 64 274 0.0 1.0 0.00 0.00 0.00 67 1010.0
20260506025746 64 202 3.0 4.0 0.00 0.00 0.00 66 1010.0
20260506025248 64 167 1.0 2.0 0.00 0.00 0.00 67 1010.0
20260506024746 64 219 1.0 2.0 0.00 0.00 0.00 66 1010.0
20260506024247 64 102 0.0 2.0 0.00 0.00 0.00 66 1010.0
20260506023747 64 227 0.0 1.0 0.00 0.00 0.00 65 1010.0
20260506023247 64 146 2.0 4.0 0.00 0.00 0.00 65 1010.0
20260506022747 64 196 1.0 2.0 0.00 0.00 0.00 65 1010.0
20260506022246 64 160 2.0 4.0 0.00 0.00 0.00 65 1010.0
20260506021746 65 0 0.0 0.0 0.00 0.00 0.00 65 1010.0
20260506021246 65 168 1.0 3.0 0.00 0.00 0.00 64 1010.0
20260506020747 65 121 1.0 3.0 0.00 0.00 0.00 64 1010.0
20260506020246 65 213 2.0 3.0 0.00 0.00 0.00 63 1010.0
20260506015746 65 121 1.0 3.0 0.00 0.00 0.00 63 1010.0
20260506015246 65 215 0.0 2.0 0.00 0.00 0.00 63 1010.0
20260506014746 66 349 0.0 2.0 0.00 0.00 0.00 63 1010.0
20260506014247 66 175 0.0 1.0 0.00 0.00 0.00 62 1010.0
20260506013746 66 0 0.0 0.0 0.00 0.00 0.00 62 1010.0
20260506013246 67 161 4.0 7.0 0.00 0.00 0.00 61 1010.0
20260506012746 67 241 1.0 3.0 0.00 0.00 0.00 61 1010.0
20260506012247 67 240 1.0 3.0 0.00 0.00 0.00 60 1010.0
20260506011746 67 194 2.0 4.0 0.00 0.00 0.00 59 1009.0
20260506011246 67 292 0.0 1.0 0.00 0.00 0.00 60 1009.0
20260506010746 68 210 2.0 4.0 0.00 0.00 0.00 60 1009.0
20260506010247 68 189 3.0 8.0 0.00 0.00 0.00 59 1009.0
20260506005746 68 195 2.0 3.0 0.00 0.00 0.00 60 1009.0
20260506005248 68 168 2.0 4.0 0.00 0.00 0.00 59 1009.0
20260506004746 68 157 3.0 8.0 0.00 0.00 0.00 59 1009.0
20260506004247 69 203 1.0 3.0 0.00 0.00 0.00 59 1009.0
20260506003746 69 200 1.0 3.0 0.00 0.00 0.00 58 1009.0
20260506003246 69 200 3.0 6.0 0.00 0.00 0.00 58 1009.0
20260506002746 69 163 3.0 7.0 0.00 0.00 0.00 58 1009.0
20260506002247 69 143 2.0 4.0 0.00 0.00 0.00 57 1009.0
20260506001746 69 193 3.0 7.0 0.00 0.00 0.00 57 1009.0
20260506001247 70 120 2.0 4.0 0.00 0.00 0.00 56 1009.0
20260506000746 70 169 3.0 8.0 0.00 0.00 0.00 56 1009.0
20260506000247 70 0 0.0 0.0 0.00 0.00 0.00 56 1009.0
20260505235746 70 334 0.0 2.0 0.00 0.00 0.00 55 1008.0
20260505235246 71 146 2.0 4.0 0.00 0.00 0.00 55 1008.0
20260505234746 71 177 4.0 6.0 0.00 0.00 0.00 54 1008.0
20260505234247 71 187 1.0 3.0 0.00 0.00 0.00 54 1008.0
20260505233746 71 170 2.0 4.0 0.00 0.00 0.00 54 1008.0
20260505233246 71 161 0.0 2.0 0.00 0.00 0.00 54 1008.0
20260505232746 71 236 2.0 4.0 0.00 0.00 0.00 54 1008.0
20260505232246 72 146 2.0 3.0 0.00 0.00 0.00 53 1008.0
20260505231746 72 191 5.0 8.0 0.00 0.00 0.00 52 1008.0
20260505231246 72 288 0.0 1.0 0.00 0.00 0.00 53 1008.0
20260505230746 73 217 3.0 4.0 0.00 0.00 0.00 52 1008.0
20260505230246 73 183 2.0 5.0 0.00 0.00 0.00 52 1008.0
20260505225746 73 212 2.0 4.0 0.00 0.00 0.00 52 1007.0
20260505225246 73 188 4.0 7.0 0.00 0.00 0.00 51 1007.0
20260505224746 74 229 1.0 4.0 0.00 0.00 0.00 51 1007.0
20260505224247 74 154 6.0 9.0 0.00 0.00 0.00 50 1007.0
20260505223747 74 167 1.0 3.0 0.00 0.00 0.00 51 1007.0
20260505223248 74 145 2.0 6.0 0.00 0.00 0.00 50 1007.0
20260505222746 74 194 2.0 7.0 0.00 0.00 0.00 49 1007.0
20260505222246 75 164 3.0 6.0 0.00 0.00 0.00 49 1007.0
20260505221747 75 290 2.0 6.0 0.00 0.00 0.00 48 1007.0
20260505221246 75 174 3.0 6.0 0.00 0.00 0.00 48 1007.0
20260505220309 76 153 3.0 6.0 0.00 0.00 0.00 48 1007.0
20260505215750 76 270 2.0 4.0 0.00 0.00 0.00 47 1007.0
20260505215246 76 157 3.0 8.0 0.00 0.00 0.00 47 1007.0
20260505214747 76 185 2.0 3.0 0.00 0.00 0.00 47 1006.0
20260505214248 76 199 5.0 10.0 0.00 0.00 0.00 46 1006.0
20260505213747 76 168 4.0 6.0 0.00 0.00 0.00 46 1007.0
20260505213246 76 215 2.0 5.0 0.00 0.00 0.00 46 1007.0
20260505212746 76 167 4.0 9.0 0.00 0.00 0.00 46 1007.0
20260505212248 77 78 0.0 1.0 0.00 0.00 0.00 46 1007.0
20260505211747 77 161 4.0 8.0 0.00 0.00 0.00 46 1007.0
20260505211249 77 95 1.0 6.0 0.00 0.00 0.00 46 1007.0
20260505210746 77 144 3.0 7.0 0.00 0.00 0.00 44 1007.0
20260505210247 78 177 5.0 10.0 0.00 0.00 0.00 44 1007.0
20260505205746 78 166 4.0 7.0 0.00 0.00 0.00 44 1007.0
20260505205246 78 180 4.0 9.0 0.00 0.00 0.00 44 1007.0
20260505204746 78 209 2.0 4.0 0.00 0.00 0.00 44 1006.0
20260505204246 78 163 7.0 9.0 0.00 0.00 0.00 44 1006.0
20260505203747 78 148 1.0 4.0 0.00 0.00 0.00 44 1006.0
20260505203247 79 189 3.0 7.0 0.00 0.00 0.00 43 1006.0
20260505202747 79 175 3.0 7.0 0.00 0.00 0.00 43 1007.0
20260505202246 79 169 2.0 7.0 0.00 0.00 0.00 42 1007.0
20260505201746 79 288 0.0 0.0 0.00 0.00 0.00 43 1007.0
20260505201249 79 266 2.0 5.0 0.00 0.00 0.00 43 1007.0
20260505200746 79 150 5.0 12.0 0.00 0.00 0.00 42 1007.0
20260505200249 80 197 4.0 10.0 0.00 0.00 0.00 41 1007.0
20260505195750 80 90 2.0 4.0 0.00 0.00 0.00 41 1006.0
20260505195248 80 284 3.0 8.0 0.00 0.00 0.00 41 1006.0
20260505194746 80 223 2.0 4.0 0.00 0.00 0.00 42 1007.0
20260505194246 79 159 5.0 8.0 0.00 0.00 0.00 41 1007.0
20260505193746 79 198 4.0 11.0 0.00 0.00 0.00 41 1007.0
20260505193247 80 184 5.0 10.0 0.00 0.00 0.00 40 1007.0
20260505192746 80 159 4.0 7.0 0.00 0.00 0.00 40 1007.0